StationID,Date,MaxTemp,MinTemp,Precipitation,Snowfall,SnowDepth
"CA001204632","1968-07-01",,,,0.00,
"CA001204632","1968-07-02",,,,0.00,
"CA001204632","1968-07-03",,,,0.00,
"CA001204632","1968-07-04",,,,0.00,
"CA001204632","1968-07-05",,,,0.00,
"CA001204632","1968-07-06",,,,0.00,
"CA001204632","1968-07-07",,,,0.00,
"CA001204632","1968-07-08",,,,0.00,
"CA001204632","1968-07-09",,,,0.00,
"CA001204632","1968-07-10",,,,0.00,
"CA001204632","1968-07-11",,,,0.00,
"CA001204632","1968-07-12",,,,0.00,
"CA001204632","1968-07-13",,,,0.00,
"CA001204632","1968-07-14",,,,0.00,
"CA001204632","1968-07-15",,,,0.00,
"CA001204632","1968-07-16",,,,0.00,
"CA001204632","1968-07-17",,,,0.00,
"CA001204632","1968-07-18",,,,0.00,
"CA001204632","1968-07-19",64.94,,0.00,0.00,
"CA001204632","1968-07-20",66.92,48.92,33.00,0.00,
"CA001204632","1968-07-21",73.94,46.94,0.00,0.00,
"CA001204632","1968-07-22",68.00,50.00,0.00,0.00,
"CA001204632","1968-07-23",64.94,51.08,0.00,0.00,
"CA001204632","1968-07-24",69.08,41.00,0.00,0.00,
"CA001204632","1968-07-25",62.96,48.02,208.00,0.00,
"CA001204632","1968-07-26",55.94,48.92,36.00,0.00,
"CA001204632","1968-07-27",57.92,48.02,28.00,0.00,
"CA001204632","1968-07-28",57.92,48.02,0.00,0.00,
"CA001204632","1968-07-29",59.00,48.92,0.00,0.00,
"CA001204632","1968-07-30",55.04,48.92,10.00,0.00,
"CA001204632","1968-07-31",59.00,51.98,0.00,0.00,
"CA001204632","1968-08-01",60.98,46.94,0.00,0.00,
"CA001204632","1968-08-02",59.00,41.00,0.00,0.00,
"CA001204632","1968-08-03",64.04,42.98,81.00,0.00,
"CA001204632","1968-08-04",62.96,44.96,0.00,0.00,
"CA001204632","1968-08-05",62.06,46.94,0.00,0.00,
"CA001204632","1968-08-06",69.08,33.98,0.00,0.00,
"CA001204632","1968-08-07",55.94,39.92,,0.00,
"CA001204632","1968-08-08",60.08,46.04,0.00,0.00,
"CA001204632","1968-08-09",71.06,33.08,0.00,0.00,
"CA001204632","1968-08-10",69.98,35.06,0.00,0.00,
"CA001204632","1968-08-11",71.96,35.96,0.00,0.00,
"CA001204632","1968-08-12",73.04,48.92,0.00,0.00,
"CA001204632","1968-08-13",69.98,42.98,0.00,0.00,
"CA001204632","1968-08-14",68.00,46.04,0.00,0.00,
"CA001204632","1968-08-15",69.08,42.08,0.00,0.00,
"CA001204632","1968-08-16",68.00,48.92,0.00,0.00,
"CA001204632","1968-08-17",62.06,42.98,0.00,0.00,
"CA001204632","1968-08-18",68.00,39.92,,0.00,
"CA001204632","1968-08-19",60.98,35.96,0.00,0.00,
"CA001204632","1968-08-20",62.06,37.04,0.00,0.00,
"CA001204632","1968-08-21",60.08,39.92,,0.00,
"CA001204632","1968-08-22",53.96,41.00,0.00,0.00,
"CA001204632","1968-08-23",57.02,33.08,0.00,0.00,
"CA001204632","1968-08-24",62.06,28.04,0.00,0.00,
"CA001204632","1968-08-25",57.02,42.08,,0.00,
"CA001204632","1968-08-26",60.08,39.02,0.00,0.00,
"CA001204632","1968-08-27",62.06,41.00,,0.00,
"CA001204632","1968-08-28",57.92,37.94,,0.00,
"CA001204632","1968-08-29",57.02,42.98,0.00,0.00,
"CA001204632","1968-08-30",55.94,42.08,,0.00,
"CA001204632","1968-08-31",51.08,42.98,,0.00,
"CA001204632","1968-09-01",55.04,41.00,,0.00,
"CA001204632","1968-09-02",51.98,41.00,,0.00,
"CA001204632","1968-09-03",51.08,33.98,,0.00,
"CA001204632","1968-09-04",48.92,41.00,,0.00,
"CA001204632","1968-09-05",53.96,46.94,,0.00,
"CA001204632","1968-09-06",53.96,46.94,,0.00,
"CA001204632","1968-09-07",51.08,42.98,,0.00,
"CA001204632","1968-09-08",53.06,42.08,,0.00,
"CA001204632","1968-09-09",48.92,33.98,,0.00,
"CA001204632","1968-09-10",48.92,41.00,,0.00,
"CA001204632","1968-09-11",48.92,33.98,,0.00,
"CA001204632","1968-09-12",51.08,32.00,,0.00,
"CA001204632","1968-09-13",51.08,26.96,,0.00,
"CA001204632","1968-09-14",,42.98,,0.00,
"CA001204632","1968-09-15",,,,0.00,
"CA001204632","1968-09-16",,,,0.00,
"CA001204632","1968-09-17",,,,0.00,
"CA001204632","1968-09-18",,,,0.00,
"CA001204632","1968-09-19",,,,0.00,
"CA001204632","1968-09-20",,,,0.00,
"CA001204632","1968-09-21",,,,0.00,
"CA001204632","1968-09-22",,,,0.00,
"CA001204632","1968-09-23",,,,0.00,
"CA001204632","1968-09-24",,,,0.00,
"CA001204632","1968-09-25",,,,0.00,
"CA001204632","1968-09-26",,,,0.00,
"CA001204632","1968-09-27",,,,0.00,
"CA001204632","1968-09-28",,,,0.00,
"CA001204632","1968-09-29",,,,0.00,
"CA001204632","1968-09-30",,,,0.00,
"CA001204632","1969-06-01",,,0.00,0.00,
"CA001204632","1969-06-02",,,0.00,0.00,
"CA001204632","1969-06-03",55.04,,,0.00,
"CA001204632","1969-06-04",50.00,39.02,0.00,0.00,
"CA001204632","1969-06-05",53.96,37.04,0.00,0.00,
"CA001204632","1969-06-06",66.92,24.98,0.00,0.00,
"CA001204632","1969-06-07",69.98,26.96,0.00,0.00,
"CA001204632","1969-06-08",71.96,39.92,0.00,0.00,
"CA001204632","1969-06-09",71.06,33.08,0.00,0.00,
"CA001204632","1969-06-10",69.98,48.02,0.00,0.00,
"CA001204632","1969-06-11",75.02,35.96,0.00,0.00,
"CA001204632","1969-06-12",82.94,35.96,0.00,0.00,
"CA001204632","1969-06-13",87.98,37.04,0.00,0.00,
"CA001204632","1969-06-14",87.98,39.02,0.00,0.00,
"CA001204632","1969-06-15",84.02,39.92,0.00,0.00,
"CA001204632","1969-06-16",68.00,42.98,0.00,0.00,
"CA001204632","1969-06-17",60.98,42.08,,0.00,
"CA001204632","1969-06-18",69.08,48.02,0.00,0.00,
"CA001204632","1969-06-19",80.96,35.06,0.00,0.00,
"CA001204632","1969-06-20",69.08,39.02,0.00,0.00,
"CA001204632","1969-06-21",55.94,39.02,0.00,0.00,
"CA001204632","1969-06-22",57.92,41.00,23.00,0.00,
"CA001204632","1969-06-23",51.08,42.98,94.00,0.00,
"CA001204632","1969-06-24",57.92,41.00,0.00,0.00,
"CA001204632","1969-06-25",71.06,32.00,0.00,0.00,
"CA001204632","1969-06-26",71.06,35.06,0.00,0.00,
"CA001204632","1969-06-27",69.98,33.08,0.00,0.00,
"CA001204632","1969-06-28",69.08,35.06,0.00,0.00,
"CA001204632","1969-06-29",66.02,33.98,0.00,0.00,
"CA001204632","1969-06-30",57.92,48.92,0.00,0.00,
"CA001204632","1969-07-01",53.06,44.96,15.00,0.00,
"CA001204632","1969-07-02",60.98,44.96,28.00,0.00,
"CA001204632","1969-07-03",62.96,35.96,0.00,0.00,
"CA001204632","1969-07-04",60.08,39.92,0.00,0.00,
"CA001204632","1969-07-05",60.08,44.96,0.00,0.00,
"CA001204632","1969-07-06",59.00,46.94,0.00,0.00,
"CA001204632","1969-07-07",57.92,46.94,0.00,0.00,
"CA001204632","1969-07-08",59.00,44.06,3.00,0.00,
"CA001204632","1969-07-09",55.94,42.98,41.00,0.00,
"CA001204632","1969-07-10",57.92,44.06,5.00,0.00,
"CA001204632","1969-07-11",57.02,46.04,0.00,0.00,
"CA001204632","1969-07-12",50.00,42.98,48.00,0.00,
"CA001204632","1969-07-13",53.96,42.98,0.00,0.00,
"CA001204632","1969-07-14",59.00,41.00,0.00,0.00,
"CA001204632","1969-07-15",57.02,44.96,0.00,0.00,
"CA001204632","1969-07-16",60.98,44.96,0.00,0.00,
"CA001204632","1969-07-17",62.06,39.02,0.00,0.00,
"CA001204632","1969-07-18",60.98,44.96,0.00,0.00,
"CA001204632","1969-07-19",57.92,46.04,0.00,0.00,
"CA001204632","1969-07-20",55.04,44.06,0.00,0.00,
"CA001204632","1969-07-21",55.04,44.06,18.00,0.00,
"CA001204632","1969-07-22",57.02,39.92,0.00,0.00,
"CA001204632","1969-07-23",51.08,37.94,28.00,0.00,
"CA001204632","1969-07-24",55.94,35.96,0.00,0.00,
"CA001204632","1969-07-25",50.00,42.98,46.00,0.00,
"CA001204632","1969-07-26",55.94,42.98,13.00,0.00,
"CA001204632","1969-07-27",62.96,42.08,0.00,0.00,
"CA001204632","1969-07-28",55.94,42.08,0.00,0.00,
"CA001204632","1969-07-29",53.06,44.96,0.00,0.00,
"CA001204632","1969-07-30",53.96,44.06,0.00,0.00,
"CA001204632","1969-07-31",55.04,42.98,5.00,0.00,
"CA001204632","1969-08-01",64.04,46.04,15.00,0.00,
"CA001204632","1969-08-02",66.92,37.94,0.00,0.00,
"CA001204632","1969-08-03",60.98,48.02,0.00,0.00,
"CA001204632","1969-08-04",71.06,41.00,0.00,0.00,
"CA001204632","1969-08-05",55.94,50.00,0.00,0.00,
"CA001204632","1969-08-06",53.96,48.02,13.00,0.00,
"CA001204632","1969-08-07",55.94,42.98,150.00,0.00,
"CA001204632","1969-08-08",46.94,33.08,41.00,0.00,
"CA001204632","1969-08-09",53.96,37.94,0.00,0.00,
"CA001204632","1969-08-10",44.96,39.02,114.00,0.00,
"CA001204632","1969-08-11",44.06,35.06,0.00,0.00,
"CA001204632","1969-08-12",46.04,33.08,66.00,0.00,
"CA001204632","1969-08-13",48.92,30.92,150.00,25.00,
"CA001204632","1969-08-14",53.06,35.96,43.00,0.00,
"CA001204632","1969-08-15",50.00,37.04,0.00,0.00,
"CA001204632","1969-08-16",51.98,37.94,58.00,0.00,
"CA001204632","1969-08-17",50.00,37.94,43.00,0.00,
"CA001204632","1969-08-18",55.94,39.92,0.00,0.00,
"CA001204632","1969-08-19",50.00,32.00,107.00,0.00,
"CA001204632","1969-08-20",46.94,37.94,23.00,0.00,
"CA001204632","1969-08-21",44.96,39.02,23.00,0.00,
"CA001204632","1969-08-22",51.98,42.08,0.00,0.00,
"CA001204632","1969-08-23",62.96,32.00,0.00,0.00,
"CA001204632","1969-08-24",64.04,24.08,0.00,0.00,
"CA001204632","1969-08-25",62.06,28.04,0.00,0.00,
"CA001204632","1969-08-26",60.98,35.06,0.00,0.00,
"CA001204632","1969-08-27",62.96,28.04,0.00,0.00,
"CA001204632","1969-08-28",51.98,41.00,0.00,0.00,
"CA001204632","1969-08-29",48.92,42.98,0.00,0.00,
"CA001204632","1969-08-30",53.06,44.06,0.00,0.00,
"CA001204632","1969-08-31",60.98,30.02,0.00,0.00,
"CA001204632","1970-06-01",51.08,,0.00,0.00,
"CA001204632","1970-06-02",55.04,35.96,86.00,0.00,
"CA001204632","1970-06-03",51.98,39.02,38.00,0.00,
"CA001204632","1970-06-04",44.96,39.92,0.00,0.00,
"CA001204632","1970-06-05",55.94,35.96,0.00,0.00,
"CA001204632","1970-06-06",66.02,28.04,0.00,0.00,
"CA001204632","1970-06-07",50.00,42.08,0.00,0.00,
"CA001204632","1970-06-08",48.92,37.94,0.00,0.00,
"CA001204632","1970-06-09",55.94,26.96,0.00,0.00,
"CA001204632","1970-06-10",55.04,37.04,0.00,0.00,
"CA001204632","1970-06-11",55.04,39.92,0.00,0.00,
"CA001204632","1970-06-12",51.98,41.00,0.00,0.00,
"CA001204632","1970-06-13",51.08,42.08,15.00,0.00,
"CA001204632","1970-06-14",53.96,44.96,0.00,0.00,
"CA001204632","1970-06-15",51.08,39.02,0.00,0.00,
"CA001204632","1970-06-16",55.04,33.08,0.00,0.00,
"CA001204632","1970-06-17",51.98,41.00,0.00,0.00,
"CA001204632","1970-06-18",51.98,41.00,0.00,0.00,
"CA001204632","1970-06-19",50.00,41.00,0.00,0.00,
"CA001204632","1970-06-20",51.98,42.98,0.00,0.00,
"CA001204632","1970-06-21",53.96,41.00,0.00,0.00,
"CA001204632","1970-06-22",51.98,44.06,0.00,0.00,
"CA001204632","1970-06-23",55.94,37.94,0.00,0.00,
"CA001204632","1970-06-24",50.00,42.08,13.00,0.00,
"CA001204632","1970-06-25",48.92,39.02,0.00,0.00,
"CA001204632","1970-06-26",53.06,35.96,8.00,0.00,
"CA001204632","1970-06-27",59.00,28.94,0.00,0.00,
"CA001204632","1970-06-28",53.06,42.98,0.00,0.00,
"CA001204632","1970-06-29",55.04,39.92,0.00,0.00,
"CA001204632","1970-06-30",64.94,37.04,0.00,0.00,
"CA001204632","1976-06-01",,,,0.00,
"CA001204632","1976-06-02",,,,0.00,
"CA001204632","1976-06-03",,,,0.00,
"CA001204632","1976-06-04",,,,0.00,
"CA001204632","1976-06-05",,,,0.00,
"CA001204632","1976-06-06",,,,0.00,
"CA001204632","1976-06-07",,,,0.00,
"CA001204632","1976-06-08",,,,0.00,
"CA001204632","1976-06-09",,,,0.00,
"CA001204632","1976-06-10",,,,0.00,
"CA001204632","1976-06-11",,,,0.00,
"CA001204632","1976-06-12",,,,0.00,
"CA001204632","1976-06-13",,,,0.00,
"CA001204632","1976-06-14",,,,0.00,
"CA001204632","1976-06-15",68.00,,0.00,0.00,
"CA001204632","1976-06-16",60.98,41.00,,,
"CA001204632","1976-06-17",55.04,,0.00,0.00,
"CA001204632","1976-06-18",51.98,39.02,0.00,0.00,
"CA001204632","1976-06-19",53.96,39.02,0.00,0.00,
"CA001204632","1976-06-20",57.02,39.92,0.00,0.00,
"CA001204632","1976-06-21",64.94,35.06,0.00,0.00,
"CA001204632","1976-06-22",57.02,42.98,0.00,0.00,
"CA001204632","1976-06-23",55.94,39.92,71.00,0.00,
"CA001204632","1976-06-24",62.06,42.08,71.00,0.00,
"CA001204632","1976-06-25",71.06,35.96,0.00,0.00,
"CA001204632","1976-06-26",73.04,41.00,0.00,0.00,
"CA001204632","1976-06-27",60.98,44.06,0.00,0.00,
"CA001204632","1976-06-28",80.06,37.04,30.00,0.00,
"CA001204632","1976-06-29",71.96,42.08,0.00,0.00,
"CA001204632","1976-06-30",57.02,42.08,0.00,0.00,
"CA001204632","1977-07-01",64.94,33.98,0.00,0.00,
"CA001204632","1977-07-02",53.06,46.04,13.00,0.00,
"CA001204632","1977-07-03",50.00,42.98,0.00,0.00,
"CA001204632","1977-07-04",57.02,44.06,0.00,0.00,
"CA001204632","1977-07-05",60.98,37.04,0.00,0.00,
"CA001204632","1977-07-06",64.04,37.04,0.00,0.00,
"CA001204632","1977-07-07",77.00,37.94,46.00,0.00,
"CA001204632","1977-07-08",75.02,42.98,0.00,0.00,
"CA001204632","1977-07-09",66.02,39.02,0.00,0.00,
"CA001204632","1977-07-10",69.98,42.98,102.00,0.00,
"CA001204632","1977-07-11",71.96,46.94,0.00,0.00,
"CA001204632","1977-07-12",66.92,46.04,0.00,0.00,
"CA001204632","1977-07-13",60.08,48.92,0.00,0.00,
"CA001204632","1977-07-14",53.96,48.02,0.00,0.00,
"CA001204632","1977-07-15",53.96,42.98,38.00,0.00,
"CA001204632","1977-07-16",55.04,42.98,74.00,0.00,
"CA001204632","1977-07-17",68.00,44.06,0.00,0.00,
"CA001204632","1977-07-18",62.96,44.96,0.00,0.00,
"CA001204632","1977-07-19",59.00,46.94,0.00,0.00,
"CA001204632","1977-07-20",59.00,46.94,0.00,0.00,
"CA001204632","1977-07-21",57.92,35.96,0.00,0.00,
"CA001204632","1977-07-22",55.94,42.08,0.00,0.00,
"CA001204632","1977-07-23",59.00,44.06,0.00,0.00,
"CA001204632","1977-07-24",57.92,44.06,0.00,0.00,
"CA001204632","1977-07-25",71.96,35.96,0.00,0.00,
"CA001204632","1977-07-26",62.96,53.96,0.00,0.00,
"CA001204632","1977-07-27",71.96,44.96,0.00,0.00,
"CA001204632","1977-07-28",71.06,39.92,0.00,0.00,
"CA001204632","1977-07-29",69.98,53.06,0.00,0.00,
"CA001204632","1977-07-30",68.00,57.02,0.00,0.00,
"CA001204632","1977-07-31",57.92,48.92,0.00,0.00,
"CA001204632","1977-08-01",57.92,46.94,0.00,0.00,
"CA001204632","1977-08-02",66.92,44.96,0.00,0.00,
"CA001204632","1977-08-03",78.08,37.04,0.00,0.00,
"CA001204632","1977-08-04",82.04,41.00,0.00,0.00,
"CA001204632","1977-08-05",75.92,41.00,0.00,0.00,
"CA001204632","1977-08-06",69.98,46.04,0.00,0.00,
"CA001204632","1977-08-07",62.06,51.98,15.00,0.00,
"CA001204632","1977-08-08",59.00,48.92,0.00,0.00,
"CA001204632","1977-08-09",60.08,51.08,0.00,0.00,
"CA001204632","1977-08-10",71.06,51.98,0.00,0.00,
"CA001204632","1977-08-11",66.92,53.96,0.00,0.00,
"CA001204632","1977-08-12",75.92,46.04,0.00,0.00,
"CA001204632","1977-08-13",82.04,42.98,0.00,0.00,
"CA001204632","1977-08-14",82.04,41.00,0.00,0.00,
"CA001204632","1977-08-15",71.06,50.00,0.00,0.00,
"CA001204632","1977-08-16",75.92,46.94,0.00,0.00,
"CA001204632","1977-08-17",80.96,39.92,0.00,0.00,
"CA001204632","1977-08-18",82.94,42.08,0.00,0.00,
"CA001204632","1977-08-19",86.00,44.06,0.00,0.00,
"CA001204632","1977-08-20",84.92,44.06,0.00,0.00,
"CA001204632","1977-08-21",84.02,46.04,0.00,0.00,
"CA001204632","1977-08-22",60.98,44.06,0.00,0.00,
"CA001204632","1977-08-23",57.92,46.04,0.00,0.00,
"CA001204632","1977-08-24",57.02,46.04,18.00,0.00,
"CA001204632","1977-08-25",57.92,42.08,0.00,0.00,
"CA001204632","1977-08-26",57.02,42.08,0.00,0.00,
"CA001204632","1977-08-27",57.02,46.04,3.00,0.00,
"CA001204632","1977-08-28",64.94,39.92,13.00,0.00,
"CA001204632","1977-08-29",62.96,39.92,0.00,0.00,
"CA001204632","1977-08-30",57.92,35.96,15.00,0.00,
"CA001204632","1977-08-31",62.96,33.08,0.00,0.00,
"CA001204632","1978-06-01",,,0.00,0.00,
"CA001204632","1978-06-02",,,0.00,0.00,
"CA001204632","1978-06-03",59.00,,0.00,0.00,
"CA001204632","1978-06-04",59.00,42.98,0.00,0.00,
"CA001204632","1978-06-05",66.02,41.00,0.00,0.00,
"CA001204632","1978-06-06",71.06,35.06,0.00,0.00,
"CA001204632","1978-06-07",66.92,44.96,0.00,0.00,
"CA001204632","1978-06-08",55.94,44.96,0.00,0.00,
"CA001204632","1978-06-09",60.08,42.98,30.00,0.00,
"CA001204632","1978-06-10",66.02,33.08,0.00,0.00,
"CA001204632","1978-06-11",64.94,35.96,0.00,0.00,
"CA001204632","1978-06-12",64.04,37.94,0.00,0.00,
"CA001204632","1978-06-13",64.04,39.92,0.00,0.00,
"CA001204632","1978-06-14",55.04,44.06,0.00,0.00,
"CA001204632","1978-06-15",53.96,44.06,0.00,0.00,
"CA001204632","1978-06-16",55.04,44.96,33.00,0.00,
"CA001204632","1978-06-17",53.96,37.94,0.00,0.00,
"CA001204632","1978-06-18",44.06,39.92,0.00,0.00,
"CA001204632","1978-06-19",46.94,42.08,0.00,0.00,
"CA001204632","1978-06-20",51.98,42.08,86.00,0.00,
"CA001204632","1978-06-21",51.98,42.98,0.00,0.00,
"CA001204632","1978-06-22",64.94,35.96,0.00,0.00,
"CA001204632","1978-06-23",64.04,33.98,0.00,0.00,
"CA001204632","1978-06-24",55.04,42.08,0.00,0.00,
"CA001204632","1978-06-25",55.04,44.96,0.00,0.00,
"CA001204632","1978-06-26",51.08,42.98,0.00,0.00,
"CA001204632","1978-06-27",51.98,42.98,0.00,0.00,
"CA001204632","1978-06-28",59.00,42.08,0.00,0.00,
"CA001204632","1978-06-29",68.00,37.94,0.00,0.00,
"CA001204632","1978-06-30",50.00,37.04,0.00,0.00,
"CA001204632","1978-07-01",51.98,41.00,0.00,0.00,
"CA001204632","1978-07-02",48.92,41.00,0.00,0.00,
"CA001204632","1978-07-03",51.98,42.08,0.00,0.00,
"CA001204632","1978-07-04",60.98,48.02,0.00,0.00,
"CA001204632","1978-07-05",64.04,50.00,0.00,0.00,
"CA001204632","1978-07-06",62.06,50.00,0.00,0.00,
"CA001204632","1978-07-07",69.98,42.98,0.00,0.00,
"CA001204632","1978-07-08",64.04,48.92,36.00,0.00,
"CA001204632","1978-07-09",78.08,39.02,0.00,0.00,
"CA001204632","1978-07-10",82.94,44.06,0.00,0.00,
"CA001204632","1978-07-11",60.98,48.02,3.00,0.00,
"CA001204632","1978-07-12",57.02,35.06,0.00,0.00,
"CA001204632","1978-07-13",55.04,44.96,0.00,0.00,
"CA001204632","1978-07-14",51.08,44.06,0.00,0.00,
"CA001204632","1978-07-15",55.04,44.06,0.00,0.00,
"CA001204632","1978-07-16",55.04,42.98,0.00,0.00,
"CA001204632","1978-07-17",55.94,44.96,0.00,0.00,
"CA001204632","1978-07-18",64.04,37.94,0.00,0.00,
"CA001204632","1978-07-19",60.08,46.94,0.00,0.00,
"CA001204632","1978-07-20",62.96,48.92,0.00,0.00,
"CA001204632","1978-07-21",57.02,48.02,0.00,0.00,
"CA001204632","1978-07-22",57.92,48.92,0.00,0.00,
"CA001204632","1978-07-23",57.92,50.00,3.00,0.00,
"CA001204632","1978-07-24",55.94,46.94,0.00,0.00,
"CA001204632","1978-07-25",62.06,48.02,0.00,0.00,
"CA001204632","1978-07-26",60.08,48.92,0.00,0.00,
"CA001204632","1978-07-27",59.00,39.02,15.00,0.00,
"CA001204632","1978-07-28",53.06,42.98,84.00,0.00,
"CA001204632","1978-07-29",71.96,39.92,0.00,0.00,
"CA001204632","1978-07-30",82.04,33.98,0.00,0.00,
"CA001204632","1978-07-31",82.94,44.06,0.00,0.00,
"CA001204632","1978-08-01",84.92,42.98,0.00,0.00,
"CA001204632","1978-08-02",77.00,48.02,0.00,0.00,
"CA001204632","1978-08-03",82.94,44.06,28.00,0.00,
"CA001204632","1978-08-04",62.06,53.06,0.00,0.00,
"CA001204632","1978-08-05",55.04,48.92,0.00,0.00,
"CA001204632","1978-08-06",57.92,32.00,0.00,0.00,
"CA001204632","1978-08-07",64.04,39.02,0.00,0.00,
"CA001204632","1978-08-08",66.02,53.06,0.00,0.00,
"CA001204632","1978-08-09",64.04,39.02,13.00,0.00,
"CA001204632","1978-08-10",60.98,48.92,0.00,0.00,
"CA001204632","1978-08-11",66.02,42.98,0.00,0.00,
"CA001204632","1978-08-12",68.00,42.98,0.00,0.00,
"CA001204632","1978-08-13",53.96,50.00,0.00,0.00,
"CA001204632","1978-08-14",57.02,48.02,0.00,0.00,
"CA001204632","1978-08-15",62.06,46.94,0.00,0.00,
"CA001204632","1978-08-16",66.92,37.04,30.00,0.00,
"CA001204632","1978-08-17",53.96,44.96,30.00,0.00,
"CA001204632","1978-08-18",62.96,37.94,13.00,0.00,
"CA001204632","1978-08-19",64.94,30.92,0.00,0.00,
"CA001204632","1978-08-20",55.94,48.02,0.00,0.00,
"CA001204632","1978-08-21",59.00,46.94,8.00,0.00,
"CA001204632","1978-08-22",55.94,44.96,5.00,0.00,
"CA001204632","1978-08-23",64.94,48.02,0.00,0.00,
"CA001204632","1978-08-24",64.94,35.96,0.00,0.00,
"CA001204632","1978-08-25",62.06,48.02,0.00,0.00,
"CA001204632","1978-08-26",64.94,32.00,0.00,0.00,
"CA001204632","1978-08-27",62.06,48.02,0.00,0.00,
"CA001204632","1978-08-28",64.04,39.02,0.00,0.00,
"CA001204632","1978-08-29",64.94,39.92,0.00,0.00,
"CA001204632","1978-08-30",60.08,44.96,25.00,0.00,
"CA001204632","1978-08-31",57.92,41.00,48.00,0.00,
"CA001204632","1979-06-01",51.08,42.98,0.00,0.00,
"CA001204632","1979-06-02",53.96,42.98,0.00,0.00,
"CA001204632","1979-06-03",51.98,39.92,0.00,0.00,
"CA001204632","1979-06-04",57.02,41.00,13.00,0.00,
"CA001204632","1979-06-05",48.92,42.08,5.00,0.00,
"CA001204632","1979-06-06",51.08,41.00,0.00,0.00,
"CA001204632","1979-06-07",51.08,37.94,0.00,0.00,
"CA001204632","1979-06-08",55.04,35.96,0.00,0.00,
"CA001204632","1979-06-09",62.06,32.00,8.00,0.00,
"CA001204632","1979-06-10",60.98,41.00,0.00,0.00,
"CA001204632","1979-06-11",55.94,39.92,43.00,0.00,
"CA001204632","1979-06-12",59.00,39.92,0.00,0.00,
"CA001204632","1979-06-13",60.98,35.96,0.00,0.00,
"CA001204632","1979-06-14",53.06,39.92,61.00,0.00,
"CA001204632","1979-06-15",60.08,41.00,5.00,0.00,
"CA001204632","1979-06-16",59.00,30.92,0.00,0.00,
"CA001204632","1979-06-17",60.98,46.94,0.00,0.00,
"CA001204632","1979-06-18",57.92,42.98,0.00,0.00,
"CA001204632","1979-06-19",60.98,42.98,0.00,0.00,
"CA001204632","1979-06-20",55.94,44.06,20.00,0.00,
"CA001204632","1979-06-21",53.96,44.06,152.00,0.00,
"CA001204632","1979-06-22",55.94,39.92,28.00,0.00,
"CA001204632","1979-06-23",57.92,44.96,0.00,0.00,
"CA001204632","1979-06-24",55.94,44.06,0.00,0.00,
"CA001204632","1979-06-25",57.02,44.06,0.00,0.00,
"CA001204632","1979-06-26",55.04,44.06,0.00,0.00,
"CA001204632","1979-06-27",53.96,46.04,10.00,0.00,
"CA001204632","1979-06-28",51.98,42.98,30.00,0.00,
"CA001204632","1979-06-29",53.06,39.92,33.00,0.00,
"CA001204632","1979-06-30",57.02,39.92,18.00,0.00,
"CA001204632","1979-09-01",51.08,33.98,48.00,0.00,
"CA001204632","1979-09-02",55.94,44.96,61.00,0.00,
"CA001204632","1979-09-03",59.00,37.94,58.00,0.00,
"CA001204632","1979-09-04",55.04,42.98,221.00,0.00,
"CA001204632","1979-09-05",57.92,44.96,5.00,0.00,
"CA001204632","1979-09-06",57.02,50.00,0.00,0.00,
"CA001204632","1979-09-07",62.06,42.08,0.00,0.00,
"CA001204632","1979-09-08",57.02,50.00,0.00,0.00,
"CA001204632","1979-09-09",55.94,44.96,0.00,0.00,
"CA001204632","1979-09-10",55.04,44.06,0.00,0.00,
"CA001204632","1979-09-11",57.02,41.00,18.00,0.00,
"CA001204632","1979-09-12",53.06,39.92,33.00,0.00,
"CA001204632","1979-09-13",,,,0.00,
"CA001204632","1979-09-14",,,,0.00,
"CA001204632","1979-09-15",,,,0.00,
"CA001204632","1979-09-16",,,,0.00,
"CA001204632","1979-09-17",,,,0.00,
"CA001204632","1979-09-18",,,,0.00,
"CA001204632","1979-09-19",,,,0.00,
"CA001204632","1979-09-20",,,,0.00,
"CA001204632","1979-09-21",,,,0.00,
"CA001204632","1979-09-22",,,,0.00,
"CA001204632","1979-09-23",,,,0.00,
"CA001204632","1979-09-24",,,,0.00,
"CA001204632","1979-09-25",,,,0.00,
"CA001204632","1979-09-26",,,,0.00,
"CA001204632","1979-09-27",,,,0.00,
"CA001204632","1979-09-28",,,,0.00,
"CA001204632","1979-09-29",,,,0.00,
"CA001204632","1979-09-30",,,,0.00,
"CA001204632","1980-06-01",51.80,41.90,3.00,0.00,
"CA001204632","1980-06-02",65.30,29.30,0.00,0.00,
"CA001204632","1980-06-03",71.60,30.20,0.00,0.00,
"CA001204632","1980-06-04",76.10,33.80,0.00,0.00,
"CA001204632","1980-06-05",76.10,38.30,0.00,0.00,
"CA001204632","1980-06-06",74.30,38.30,0.00,0.00,
"CA001204632","1980-06-07",70.70,41.90,0.00,0.00,
"CA001204632","1980-06-08",68.00,48.20,0.00,0.00,
"CA001204632","1980-06-09",64.40,46.40,0.00,0.00,
"CA001204632","1980-06-10",67.10,49.10,0.00,0.00,
"CA001204632","1980-06-11",56.30,44.60,0.00,0.00,
"CA001204632","1980-06-12",50.90,42.80,0.00,0.00,
"CA001204632","1980-06-13",50.90,40.10,5.00,0.00,
"CA001204632","1980-06-14",58.10,39.20,3.00,0.00,
"CA001204632","1980-06-15",62.60,32.00,0.00,0.00,
"CA001204632","1980-06-16",59.90,32.00,13.00,0.00,
"CA001204632","1980-06-17",55.40,32.90,0.00,0.00,
"CA001204632","1980-06-18",55.40,32.00,0.00,0.00,
"CA001204632","1980-06-19",59.00,38.30,0.00,0.00,
"CA001204632","1980-06-20",56.30,41.00,0.00,0.00,
"CA001204632","1980-06-21",50.00,41.00,0.00,0.00,
"CA001204632","1980-06-22",52.70,38.30,0.00,0.00,
"CA001204632","1980-06-23",64.40,38.30,0.00,0.00,
"CA001204632","1980-06-24",69.80,43.70,0.00,0.00,
"CA001204632","1980-06-25",69.80,35.60,0.00,0.00,
"CA001204632","1980-06-26",64.40,40.10,0.00,0.00,
"CA001204632","1980-06-27",59.00,46.40,0.00,0.00,
"CA001204632","1980-06-28",58.10,44.60,0.00,0.00,
"CA001204632","1980-06-29",58.10,43.70,0.00,0.00,
"CA001204632","1980-06-30",55.40,42.80,0.00,0.00,
"CA001204632","1980-08-01",55.40,44.60,0.00,0.00,0.00